View from above orbital plane
|
View from above satellite
|
Ground track
|
The orbit data is extracted from the following two-line orbital elements,
1 40315U 14075A 21025.97025870 .00000082 00000-0 00000+0 0 9997
2 40315 63.8134 258.9789 0015634 209.7559 313.3318 2.13101315 47914
Epoch (UTC): | 25 January 2021 23:17:10 |
Eccentricity: | 0.0015634 |
inclination: | 63.8134° |
perigee height: | 19090 km |
apogee height: | 19169 km |
right ascension of ascending node: | 258.9789° |
argument of perigee: | 209.7559° |
revolutions per day: | 2.13101315 |
mean anomaly at epoch: | 313.3318° |
orbit number at epoch: | 4791 |
The dashed part of the orbit path shows where the satellite is in the earth's shadow,
|
|